Location: Newark
(13.8117°N, 3.6025°W)
Time: 16:17:09
(UTC+00:00)

Explorer 11/Cluster Stage 4 - Pass Details

Date: 01 September 2019
Orbit: 467 x 1259 km, 28.8° (Epoch: 22 October)

Event Time Altitude Azimuth Distance (km) Brightness Sun altitude
Rises 07:54:11 0° 292° (WNW) 3,324 9.3 26.1°
Reaches altitude 10° 07:57:04 10° 307° (NW) 2,535 8.8 26.8°
Maximum altitude 08:01:52 23° 358° (N) 1,987 8.8 27.9°
Drops below altitude 10° 08:07:23 10° 47° (NE) 2,966 10.4 29.3°
Sets 08:11:06 0° 61° (ENE) 4,041 11.1 30.2°
